TimeEST,TemperatureF,Dew PointF,Humidity,Sea Level PressureIn,VisibilityMPH,Wind Direction,Wind SpeedMPH,Gust SpeedMPH,PrecipitationIn,Events,Conditions,WindDirDegrees,DateUTC
12:54 AM,19.0,15.1,85,29.85,0.5,North,6.9,-,0.06,Fog-Snow,Snow,10,2013-02-09 05:54:00
1:54 AM,18.0,12.9,81,29.84,0.5,North,11.5,21.9,0.05,Snow,Snow,350,2013-02-09 06:54:00
2:54 AM,18.0,12.0,78,29.85,0.8,NW,10.4,19.6,0.05,Snow,Light Snow,320,2013-02-09 07:54:00
3:19 AM,17.6,12.2,79,29.82,0.8,Variable,5.8,-,0.01,Snow,Light Snow,0,2013-02-09 08:19:00
3:38 AM,17.6,12.2,79,29.82,0.5,North,8.1,19.6,0.02,Snow,Snow,350,2013-02-09 08:38:00
3:54 AM,17.1,10.9,77,29.85,0.5,NNW,9.2,19.6,0.03,Snow,Snow,340,2013-02-09 08:54:00
4:39 AM,17.6,10.4,73,29.82,0.8,North,9.2,20.7,0.02,Snow,Light Snow,360,2013-02-09 09:39:00
4:54 AM,17.1,10.0,74,29.85,0.5,North,13.8,25.3,0.03,Snow,Snow,350,2013-02-09 09:54:00
5:06 AM,17.6,10.4,73,29.82,0.5,NNW,15.0,28.8,0.00,Snow,Snow,340,2013-02-09 10:06:00
5:45 AM,17.6,8.6,68,29.82,0.8,North,11.5,32.2,0.00,Snow,Light Snow,360,2013-02-09 10:45:00
5:54 AM,17.1,9.0,71,29.86,1.2,North,11.5,25.3,0.00,Snow,Light Snow,360,2013-02-09 10:54:00
6:21 AM,17.6,8.6,68,29.83,2.0,North,12.7,25.3,0.00,Snow,Light Snow,350,2013-02-09 11:21:00
6:38 AM,17.6,6.8,63,29.84,4.0,North,15.0,25.3,0.00,Snow,Light Snow,350,2013-02-09 11:38:00
6:54 AM,17.1,7.0,65,29.88,6.0,North,8.1,24.2,0.00,,Overcast,10,2013-02-09 11:54:00
7:54 AM,16.0,3.9,59,29.94,2.5,North,19.6,32.2,0.00,,Overcast,360,2013-02-09 12:54:00
8:08 AM,15.8,3.2,58,29.91,3.0,North,17.3,31.1,0.00,,Overcast,10,2013-02-09 13:08:00
8:14 AM,15.8,3.2,58,29.91,1.8,North,19.6,32.2,0.00,,Overcast,360,2013-02-09 13:14:00
8:54 AM,15.1,1.9,56,29.97,2.0,North,18.4,32.2,0.00,,Overcast,350,2013-02-09 13:54:00
9:09 AM,15.8,3.2,58,29.94,4.0,North,17.3,29.9,0.00,,Overcast,360,2013-02-09 14:09:00
9:54 AM,16.0,1.9,54,29.99,9.0,North,12.7,23.0,0.00,,Mostly Cloudy,360,2013-02-09 14:54:00
10:54 AM,18.0,1.0,48,30.00,7.0,North,10.4,23.0,0.00,,Overcast,350,2013-02-09 15:54:00
11:54 AM,21.9,3.9,46,29.99,10.0,NNW,8.1,-,N/A,,Overcast,340,2013-02-09 16:54:00
12:54 PM,18.0,3.0,52,30.01,10.0,West,9.2,19.6,N/A,,Scattered Clouds,270,2013-02-09 17:54:00
1:48 PM,19.4,3.2,49,30.00,0.8,NW,10.4,19.6,N/A,,Haze,310,2013-02-09 18:48:00
1:54 PM,18.0,1.9,50,30.04,0.5,WNW,9.2,21.9,0.02,Snow,Snow,300,2013-02-09 18:54:00
1:58 PM,19.4,1.4,46,30.01,3.0,West,9.2,21.9,0.01,,Haze,270,2013-02-09 18:58:00
2:54 PM,18.0,1.0,48,30.07,10.0,WNW,10.4,17.3,0.01,,Partly Cloudy,300,2013-02-09 19:54:00
3:54 PM,18.0,-0.0,45,30.11,10.0,NW,9.2,-,N/A,,Clear,310,2013-02-09 20:54:00
4:54 PM,17.1,-0.0,47,30.13,10.0,WNW,8.1,17.3,N/A,,Clear,300,2013-02-09 21:54:00
5:54 PM,15.1,-2.0,47,30.18,10.0,NW,9.2,-,N/A,,Clear,320,2013-02-09 22:54:00
6:54 PM,12.9,-4.0,47,30.23,10.0,WNW,4.6,-,N/A,,Clear,300,2013-02-09 23:54:00
7:54 PM,14.0,-4.0,45,30.26,10.0,North,9.2,-,N/A,,Clear,360,2013-02-10 00:54:00
8:54 PM,14.0,-4.0,45,30.28,10.0,Calm,Calm,-,N/A,,Clear,0,2013-02-10 01:54:00
9:54 PM,14.0,-4.0,45,30.29,10.0,Calm,Calm,-,N/A,,Clear,0,2013-02-10 02:54:00
10:54 PM,10.9,-5.1,49,30.30,10.0,Variable,3.5,-,N/A,,Clear,0,2013-02-10 03:54:00
11:54 PM,12.0,-6.0,44,30.31,10.0,WNW,8.1,-,N/A,,Clear,290,2013-02-10 04:54:00